Time,TemperatureF,DewpointF,PressureIn,WindDirection,WindDirectionDegrees,WindSpeedMPH,WindSpeedGustMPH,Humidity,HourlyPrecipIn,Conditions,Clouds,dailyrainin,SolarRadiationWatts/m^2,SoftwareType,DateUTC
2013-01-11 00:12:00,33.0,31.0,-100.00,SSE,147,2.0,3.0,93,0.00,,,-99.99,0.000000,,2013-01-11 08:12:00,
2013-01-11 00:22:00,33.0,31.0,-100.00,SSE,147,2.0,3.0,93,0.00,,,-99.99,0.000000,,2013-01-11 08:22:00,
2013-01-11 00:32:00,33.0,31.0,-100.00,SSE,147,2.0,3.0,93,0.00,,,-99.99,0.000000,,2013-01-11 08:32:00,
2013-01-11 00:42:00,33.0,31.0,-100.00,SSE,147,2.0,3.0,93,0.00,,,-99.99,0.000000,,2013-01-11 08:42:00,
2013-01-11 00:50:00,32.0,30.0,-100.00,ENE,68,1.0,5.0,92,0.00,,,0.05,0.000000,,2013-01-11 08:50:00,
2013-01-11 01:12:00,32.0,30.0,-100.00,ENE,68,1.0,5.0,92,0.00,,,0.05,0.000000,,2013-01-11 09:12:00,
2013-01-11 01:22:00,32.0,30.0,-100.00,ENE,68,1.0,5.0,92,0.00,,,0.05,0.000000,,2013-01-11 09:22:00,
2013-01-11 01:32:00,32.0,30.0,-100.00,ENE,68,1.0,5.0,92,0.00,,,0.05,0.000000,,2013-01-11 09:32:00,
2013-01-11 01:42:00,32.0,30.0,-100.00,ENE,68,1.0,5.0,92,0.00,,,0.05,0.000000,,2013-01-11 09:42:00,
2013-01-11 01:50:00,31.0,30.0,-100.00,ESE,123,3.0,5.0,95,0.00,,,0.01,0.000000,,2013-01-11 09:50:00,
2013-01-11 02:22:00,31.0,30.0,-100.00,ESE,123,3.0,5.0,95,0.00,,,0.01,0.000000,,2013-01-11 10:22:00,
2013-01-11 02:32:00,31.0,30.0,-100.00,ESE,123,3.0,5.0,95,0.00,,,0.01,0.000000,,2013-01-11 10:32:00,
2013-01-11 02:42:00,31.0,30.0,-100.00,ESE,123,3.0,5.0,95,0.00,,,0.01,0.000000,,2013-01-11 10:42:00,
2013-01-11 02:50:00,30.0,29.0,-100.00,East,93,0.0,4.0,95,0.00,,,0.00,0.000000,,2013-01-11 10:50:00,
2013-01-11 03:12:00,30.0,29.0,-100.00,East,93,0.0,4.0,95,0.00,,,0.00,0.000000,,2013-01-11 11:12:00,
2013-01-11 03:22:00,30.0,29.0,-100.00,East,93,0.0,4.0,95,0.00,,,0.00,0.000000,,2013-01-11 11:22:00,
2013-01-11 03:32:00,30.0,29.0,-100.00,East,93,0.0,4.0,95,0.00,,,0.00,0.000000,,2013-01-11 11:32:00,
2013-01-11 03:42:00,30.0,29.0,-100.00,East,93,0.0,4.0,95,0.00,,,0.00,0.000000,,2013-01-11 11:42:00,
2013-01-11 03:50:00,30.0,29.0,-100.00,ENE,64,0.0,5.0,96,0.00,,,0.00,0.000000,,2013-01-11 11:50:00,
2013-01-11 04:22:00,30.0,29.0,-100.00,ENE,64,0.0,5.0,96,0.00,,,0.00,0.000000,,2013-01-11 12:22:00,
2013-01-11 04:32:00,30.0,29.0,-100.00,ENE,64,0.0,5.0,96,0.00,,,0.00,0.000000,,2013-01-11 12:32:00,
2013-01-11 04:42:00,30.0,29.0,-100.00,ENE,64,0.0,5.0,96,0.00,,,0.00,0.000000,,2013-01-11 12:42:00,
2013-01-11 04:50:00,30.0,29.0,-100.00,ESE,119,3.0,5.0,96,0.00,,,-99.99,1.000000,,2013-01-11 12:50:00,
2013-01-11 05:12:00,30.0,29.0,-100.00,ESE,119,3.0,5.0,96,0.00,,,-99.99,1.000000,,2013-01-11 13:12:00,
2013-01-11 05:22:00,30.0,29.0,-100.00,ESE,119,3.0,5.0,96,0.00,,,-99.99,1.000000,,2013-01-11 13:22:00,
2013-01-11 05:32:00,30.0,29.0,-100.00,ESE,119,3.0,5.0,96,0.00,,,-99.99,1.000000,,2013-01-11 13:32:00,
2013-01-11 05:42:00,30.0,29.0,-100.00,ESE,119,3.0,5.0,96,0.00,,,-99.99,1.000000,,2013-01-11 13:42:00,
2013-01-11 05:50:00,30.0,29.0,-100.00,ESE,108,2.0,5.0,95,0.00,,,0.00,0.000000,,2013-01-11 13:50:00,
2013-01-11 06:22:00,30.0,29.0,-100.00,ESE,108,2.0,5.0,95,0.00,,,0.00,0.000000,,2013-01-11 14:22:00,
2013-01-11 06:33:00,30.0,29.0,-100.00,ESE,108,2.0,5.0,95,0.00,,,0.00,0.000000,,2013-01-11 14:33:00,
2013-01-11 06:42:00,30.0,29.0,-100.00,ESE,108,2.0,5.0,95,0.00,,,0.00,0.000000,,2013-01-11 14:42:00,
2013-01-11 06:50:00,29.0,28.0,-100.00,ESE,113,0.0,4.0,96,0.00,,,0.00,0.000000,,2013-01-11 14:50:00,
2013-01-11 07:12:00,29.0,28.0,-100.00,ESE,113,0.0,4.0,96,0.00,,,0.00,0.000000,,2013-01-11 15:12:00,
2013-01-11 07:23:00,29.0,28.0,-100.00,ESE,113,0.0,4.0,96,0.00,,,0.00,0.000000,,2013-01-11 15:23:00,
2013-01-11 07:32:00,29.0,28.0,-100.00,ESE,113,0.0,4.0,96,0.00,,,0.00,0.000000,,2013-01-11 15:32:00,
2013-01-11 07:42:00,29.0,28.0,-100.00,ESE,113,0.0,4.0,96,0.00,,,0.00,0.000000,,2013-01-11 15:42:00,
2013-01-11 07:50:00,30.0,29.0,-100.00,ESE,121,2.0,4.0,96,0.00,,,0.00,3.000000,,2013-01-11 15:50:00,
2013-01-11 08:12:00,30.0,29.0,-100.00,ESE,121,2.0,4.0,96,0.00,,,0.00,3.000000,,2013-01-11 16:12:00,
2013-01-11 08:22:00,30.0,29.0,-100.00,ESE,121,2.0,4.0,96,0.00,,,0.00,3.000000,,2013-01-11 16:22:00,
2013-01-11 08:32:00,30.0,29.0,-100.00,ESE,121,2.0,4.0,96,0.00,,,0.00,3.000000,,2013-01-11 16:32:00,
2013-01-11 08:42:00,30.0,29.0,-100.00,ESE,121,2.0,4.0,96,0.00,,,0.00,3.000000,,2013-01-11 16:42:00,
2013-01-11 08:50:00,31.0,30.0,-100.00,WSW,253,0.0,3.0,96,0.00,,,0.00,37.000000,,2013-01-11 16:50:00,
2013-01-11 09:12:00,31.0,30.0,-100.00,WSW,253,0.0,3.0,96,0.00,,,0.00,37.000000,,2013-01-11 17:12:00,
2013-01-11 09:22:00,31.0,30.0,-100.00,WSW,253,0.0,3.0,96,0.00,,,0.00,37.000000,,2013-01-11 17:22:00,
2013-01-11 09:33:00,31.0,30.0,-100.00,WSW,253,0.0,3.0,96,0.00,,,0.00,37.000000,,2013-01-11 17:33:00,
2013-01-11 09:42:00,31.0,30.0,-100.00,WSW,253,0.0,3.0,96,0.00,,,0.00,37.000000,,2013-01-11 17:42:00,
2013-01-11 09:50:00,36.0,35.0,-100.00,WNW,291,0.0,0.0,95,0.01,,,0.01,167.000000,,2013-01-11 17:50:00,
2013-01-11 10:12:00,36.0,35.0,-100.00,WNW,291,0.0,0.0,95,0.01,,,0.01,167.000000,,2013-01-11 18:12:00,
2013-01-11 10:23:00,36.0,35.0,-100.00,WNW,291,0.0,0.0,95,0.01,,,0.01,167.000000,,2013-01-11 18:23:00,
2013-01-11 10:32:00,36.0,35.0,-100.00,WNW,291,0.0,0.0,95,0.01,,,0.01,167.000000,,2013-01-11 18:32:00,
2013-01-11 10:42:00,36.0,35.0,-100.00,WNW,291,0.0,0.0,95,0.01,,,0.01,167.000000,,2013-01-11 18:42:00,
2013-01-11 10:50:00,42.0,39.0,-100.00,WSW,241,1.0,6.0,88,0.00,,,0.01,354.000000,,2013-01-11 18:50:00,
2013-01-11 11:12:00,42.0,39.0,-100.00,WSW,241,1.0,6.0,88,0.00,,,0.01,354.000000,,2013-01-11 19:12:00,
2013-01-11 11:22:00,42.0,39.0,-100.00,WSW,241,1.0,6.0,88,0.00,,,0.01,354.000000,,2013-01-11 19:22:00,
2013-01-11 11:32:00,42.0,39.0,-100.00,WSW,241,1.0,6.0,88,0.00,,,0.01,354.000000,,2013-01-11 19:32:00,
2013-01-11 11:42:00,42.0,39.0,-100.00,WSW,241,1.0,6.0,88,0.00,,,0.01,354.000000,,2013-01-11 19:42:00,
2013-01-11 11:50:00,44.0,36.0,-100.00,NNW,327,6.0,9.0,73,0.00,,,0.01,409.000000,,2013-01-11 19:50:00,
2013-01-11 12:12:00,44.0,36.0,-100.00,NNW,327,6.0,9.0,73,0.00,,,0.01,409.000000,,2013-01-11 20:12:00,
2013-01-11 12:22:00,44.0,36.0,-100.00,NNW,327,6.0,9.0,73,0.00,,,0.01,409.000000,,2013-01-11 20:22:00,
2013-01-11 12:32:00,44.0,36.0,-100.00,NNW,327,6.0,9.0,73,0.00,,,0.01,409.000000,,2013-01-11 20:32:00,
2013-01-11 12:43:00,44.0,36.0,-100.00,NNW,327,6.0,9.0,73,0.00,,,0.01,409.000000,,2013-01-11 20:43:00,
2013-01-11 12:50:00,46.0,35.0,-100.00,WNW,298,10.0,15.0,66,0.00,,,0.01,458.000000,,2013-01-11 20:50:00,
2013-01-11 13:12:00,46.0,35.0,-100.00,WNW,298,10.0,15.0,66,0.00,,,0.01,458.000000,,2013-01-11 21:12:00,
2013-01-11 13:23:00,46.0,35.0,-100.00,WNW,298,10.0,15.0,66,0.00,,,0.01,458.000000,,2013-01-11 21:23:00,
2013-01-11 13:32:00,46.0,35.0,-100.00,WNW,298,10.0,15.0,66,0.00,,,0.01,458.000000,,2013-01-11 21:32:00,
2013-01-11 13:42:00,46.0,35.0,-100.00,WNW,298,10.0,15.0,66,0.00,,,0.01,458.000000,,2013-01-11 21:42:00,
2013-01-11 13:50:00,48.0,36.0,-100.00,WNW,302,12.0,16.0,63,0.00,,,0.01,479.000000,,2013-01-11 21:50:00,
2013-01-11 14:12:00,48.0,36.0,-100.00,WNW,302,12.0,16.0,63,0.00,,,0.01,479.000000,,2013-01-11 22:12:00,
2013-01-11 14:22:00,48.0,36.0,-100.00,WNW,302,12.0,16.0,63,0.00,,,0.01,479.000000,,2013-01-11 22:22:00,
2013-01-11 14:33:00,48.0,36.0,-100.00,WNW,302,12.0,16.0,63,0.00,,,0.01,479.000000,,2013-01-11 22:33:00,
2013-01-11 14:42:00,48.0,36.0,-100.00,WNW,302,12.0,16.0,63,0.00,,,0.01,479.000000,,2013-01-11 22:42:00,
2013-01-11 14:50:00,48.0,35.0,-100.00,WNW,288,14.0,21.0,61,0.00,,,0.01,410.000000,,2013-01-11 22:50:00,
2013-01-11 15:12:00,48.0,35.0,-100.00,WNW,288,14.0,21.0,61,0.00,,,0.01,410.000000,,2013-01-11 23:12:00,
2013-01-11 15:22:00,48.0,35.0,-100.00,WNW,288,14.0,21.0,61,0.00,,,0.01,410.000000,,2013-01-11 23:22:00,
2013-01-11 15:32:00,48.0,35.0,-100.00,WNW,288,14.0,21.0,61,0.00,,,0.01,410.000000,,2013-01-11 23:32:00,
2013-01-11 15:42:00,48.0,35.0,-100.00,WNW,288,14.0,21.0,61,0.00,,,0.01,410.000000,,2013-01-11 23:42:00,
2013-01-11 15:50:00,47.0,35.0,-100.00,WNW,293,11.0,19.0,63,0.00,,,0.01,263.000000,,2013-01-11 23:50:00,
2013-01-11 16:12:00,47.0,35.0,-100.00,WNW,293,11.0,19.0,63,0.00,,,0.01,263.000000,,2013-01-12 00:12:00,
2013-01-11 16:22:00,47.0,35.0,-100.00,WNW,293,11.0,19.0,63,0.00,,,0.01,263.000000,,2013-01-12 00:22:00,
2013-01-11 16:32:00,47.0,35.0,-100.00,WNW,293,11.0,19.0,63,0.00,,,0.01,263.000000,,2013-01-12 00:32:00,
2013-01-11 16:42:00,47.0,35.0,-100.00,WNW,293,11.0,19.0,63,0.00,,,0.01,263.000000,,2013-01-12 00:42:00,
2013-01-11 16:50:00,44.0,34.0,-100.00,NW,311,9.0,16.0,67,0.00,,,0.01,102.000000,,2013-01-12 00:50:00,
2013-01-11 17:12:00,44.0,34.0,-100.00,NW,311,9.0,16.0,67,0.00,,,0.01,102.000000,,2013-01-12 01:12:00,
2013-01-11 17:22:00,44.0,34.0,-100.00,NW,311,9.0,16.0,67,0.00,,,0.01,102.000000,,2013-01-12 01:22:00,
2013-01-11 17:32:00,44.0,34.0,-100.00,NW,311,9.0,16.0,67,0.00,,,0.01,102.000000,,2013-01-12 01:32:00,
2013-01-11 17:42:00,44.0,34.0,-100.00,NW,311,9.0,16.0,67,0.00,,,0.01,102.000000,,2013-01-12 01:42:00,
2013-01-11 17:50:00,42.0,35.0,-100.00,NNW,329,8.0,13.0,75,0.00,,,0.01,5.000000,,2013-01-12 01:50:00,
2013-01-11 18:12:00,42.0,35.0,-100.00,NNW,329,8.0,13.0,75,0.00,,,0.01,5.000000,,2013-01-12 02:12:00,
2013-01-11 18:22:00,42.0,35.0,-100.00,NNW,329,8.0,13.0,75,0.00,,,0.01,5.000000,,2013-01-12 02:22:00,
2013-01-11 18:32:00,42.0,35.0,-100.00,NNW,329,8.0,13.0,75,0.00,,,0.01,5.000000,,2013-01-12 02:32:00,
2013-01-11 18:42:00,42.0,35.0,-100.00,NNW,329,8.0,13.0,75,0.00,,,0.01,5.000000,,2013-01-12 02:42:00,
2013-01-11 18:50:00,42.0,37.0,-100.00,NW,306,8.0,13.0,82,0.00,,,0.01,0.000000,,2013-01-12 02:50:00,
2013-01-11 19:12:00,42.0,37.0,-100.00,NW,306,8.0,13.0,82,0.00,,,0.01,0.000000,,2013-01-12 03:12:00,
2013-01-11 19:22:00,42.0,37.0,-100.00,NW,306,8.0,13.0,82,0.00,,,0.01,0.000000,,2013-01-12 03:22:00,
2013-01-11 19:32:00,42.0,37.0,-100.00,NW,306,8.0,13.0,82,0.00,,,0.01,0.000000,,2013-01-12 03:32:00,
2013-01-11 19:42:00,42.0,37.0,-100.00,NW,306,8.0,13.0,82,0.00,,,0.01,0.000000,,2013-01-12 03:42:00,
2013-01-11 19:50:00,41.0,37.0,-100.00,North,353,5.0,15.0,84,0.00,,,0.01,0.000000,,2013-01-12 03:50:00,
2013-01-11 20:12:00,41.0,37.0,-100.00,North,353,5.0,15.0,84,0.00,,,0.01,0.000000,,2013-01-12 04:12:00,
2013-01-11 20:22:00,41.0,37.0,-100.00,North,353,5.0,15.0,84,0.00,,,0.01,0.000000,,2013-01-12 04:22:00,
2013-01-11 20:32:00,41.0,37.0,-100.00,North,353,5.0,15.0,84,0.00,,,0.01,0.000000,,2013-01-12 04:32:00,
2013-01-11 20:42:00,41.0,37.0,-100.00,North,353,5.0,15.0,84,0.00,,,0.01,0.000000,,2013-01-12 04:42:00,
2013-01-11 20:50:00,39.0,36.0,-100.00,NW,325,4.0,9.0,89,0.00,,,0.01,0.000000,,2013-01-12 04:50:00,
2013-01-11 21:12:00,39.0,36.0,-100.00,NW,325,4.0,9.0,89,0.00,,,0.01,0.000000,,2013-01-12 05:12:00,
2013-01-11 21:22:00,39.0,36.0,-100.00,NW,325,4.0,9.0,89,0.00,,,0.01,0.000000,,2013-01-12 05:22:00,
2013-01-11 21:32:00,39.0,36.0,-100.00,NW,325,4.0,9.0,89,0.00,,,0.01,0.000000,,2013-01-12 05:32:00,
2013-01-11 21:42:00,39.0,36.0,-100.00,NW,325,4.0,9.0,89,0.00,,,0.01,0.000000,,2013-01-12 05:42:00,
2013-01-11 21:50:00,36.0,34.0,-100.00,SE,134,4.0,7.0,91,0.00,,,0.01,0.000000,,2013-01-12 05:50:00,
2013-01-11 22:22:00,36.0,34.0,-100.00,SE,134,4.0,7.0,91,0.00,,,0.01,0.000000,,2013-01-12 06:22:00,
2013-01-11 22:32:00,36.0,34.0,-100.00,SE,134,4.0,7.0,91,0.00,,,0.01,0.000000,,2013-01-12 06:32:00,
2013-01-11 22:42:00,36.0,34.0,-100.00,SE,134,4.0,7.0,91,0.00,,,0.01,0.000000,,2013-01-12 06:42:00,
2013-01-11 22:50:00,35.0,33.0,-100.00,NE,54,1.0,6.0,93,0.00,,,0.01,0.000000,,2013-01-12 06:50:00,
2013-01-11 23:22:00,35.0,33.0,-100.00,NE,54,1.0,6.0,93,0.00,,,0.01,0.000000,,2013-01-12 07:22:00,
2013-01-11 23:32:00,35.0,33.0,-100.00,NE,54,1.0,6.0,93,0.00,,,0.01,0.000000,,2013-01-12 07:32:00,
2013-01-11 23:42:00,35.0,33.0,-100.00,NE,54,1.0,6.0,93,0.00,,,0.01,0.000000,,2013-01-12 07:42:00,
2013-01-11 23:50:00,34.0,33.0,-100.00,ESE,119,3.0,5.0,95,0.00,,,0.01,0.000000,,2013-01-12 07:50:00,